Regional Weather Roundup
Issued by NWS Burlington, VT

Home | Current Version | Previous Version | Text Only | Print | Product List | Glossary On
Versions: 1 2 3 4 5 6 7 8 9 10 11 12 13 14 15 16 17 18 19 20 21 22 23 24 25 26 27 28 29 30 31 32 33 34 35 36 37 38 39 40 41 42 43 44 45 46 47 48 49 50
000
ASUS41 KBTV 080630
RWRBTV
VERMONT REGIONAL WEATHER ROUNDUP
NATIONAL WEATHER SERVICE BURLINGTON VT
200 AM EDT WED JUL 08 2015

NOTE: "FAIR" INDICATES FEW OR NO CLOUDS BELOW 12,000 FEET WITH NO
SIGNIFICANT WEATHER AND/OR OBSTRUCTIONS TO VISIBILITY.

* THESE REPORTS ARE NOT UNDER NWS QUALITY CONTROL AND/OR DO NOT
  REPORT WEATHER SUCH AS PRECIPITATION AND FOG.

VTZ001>019-080700-
_____VERMONT_____


CITY           SKY/WX    TMP DP  RH WIND       PRES   REMARKS
BURLINGTON     LGT RAIN  75  68  78 SW8       29.81S
6HR MIN TEMP:  75; 6HR MAX TEMP:  80; 6HR PCP: TRACE;

MONTPELIER     PTCLDY    71  65  81 S7        29.89F
6HR MIN TEMP:  69; 6HR MAX TEMP:  75;

MORRISVILLE    MOCLDY    73  66  78 S3        29.84F
6HR MIN TEMP:  70; 6HR MAX TEMP:  80;

ST. JOHNSBURY*   N/A     73  68  84 MISG      29.82F
6HR MIN TEMP:  73; 6HR MAX TEMP:  78;

LYNDONVILLE*   MOCLDY    69  68  96 SE8       29.87F
6HR MIN TEMP:  69; 6HR MAX TEMP:  76;

MIDDLEBURY*    MOCLDY    74  69  83 S9        29.85S
6HR MIN TEMP:  74; 6HR MAX TEMP:  78;

RUTLAND*       PTCLDY    70  63  78 SE3       29.88F
6HR MIN TEMP:  68; 6HR MAX TEMP:  75;

SPRINGFIELD    PTCLDY    68  66  93 CALM      29.89F
6HR MIN TEMP:  68; 6HR MAX TEMP:  76;

HIGHGATE*      LGT RAIN  72  70  93 S7        29.79S
6HR MIN TEMP:  72; 6HR MAX TEMP:  79;

NEWPORT*       CLOUDY    70  67  90 S3        29.83F
6HR MIN TEMP:  67; 6HR MAX TEMP:  75;

BENNINGTON     CLEAR     67  66  97 CALM      29.90F FOG
6HR MIN TEMP:  67; 6HR MAX TEMP:  76; 6HR PCP: TRACE;

MT. MANSFIELD*   N/A     63 N/A N/A W20G36      N/A

_____LAKE CHAMPLAIN_____


CITY           SKY/WX    TMP DP  RH WIND       PRES   REMARKS

$$

NYZ007-026>031-035-052-083-080700-
_____NORTHERN NEW YORK_____


CITY           SKY/WX    TMP DP  RH WIND       PRES   REMARKS
PLATTSBURGH    MOCLDY    72  69  90 SE6       29.79S
6HR MIN TEMP:  71; 6HR MAX TEMP:  79; 6HR PCP: TRACE;

SARANAC LAKE   CLOUDY    68  66  93 SW10      29.86S
6HR MIN TEMP:  68; 6HR MAX TEMP:  75; 6HR PCP:  0.04;

MASSENA        RAIN      61  59  93 NW10      29.87R FOG
6HR MIN TEMP:  63; 6HR MAX TEMP:  79; 6HR PCP:  0.28;

OGDENSBURG*    HVY RAIN  61  61 100 N13G18    29.89R
POTSDAM*       CLOUDY    63  63 100 N12G17    29.87R
WATERTOWN      LGT RAIN  63  61  93 N12       29.88R FOG
6HR MIN TEMP:  68; 6HR MAX TEMP:  72; 6HR PCP:  0.19;

FT DRUM        RAIN      63  63 100 N15G23    29.88R
6HR MIN TEMP:  70; 6HR MAX TEMP:  81; 6HR PCP:  0.21;

ALBANY         MOCLDY    74  70  87 S9        29.88F
6HR MIN TEMP:  74; 6HR MAX TEMP:  78;

GLENS FALLS    MOCLDY    72  69  90 S9        29.86F
6HR MIN TEMP:  68; 6HR MAX TEMP:  75; 6HR PCP: TRACE;


$$
NHZ002-005-011-080700-
_____NEW HAMPSHIRE_____


CITY           SKY/WX    TMP DP  RH WIND       PRES   REMARKS
LEBANON        PTCLDY    71  68  90 S7        29.87F
6HR MIN TEMP:  69; 6HR MAX TEMP:  76;

KEENE          CLOUDY    70  66  88 CALM      29.91S
6HR MIN TEMP:  70; 6HR MAX TEMP:  73;

MT WASHINGTON  FOG       55  55 100 W40G52      N/A  VSB 0
6HR MIN TEMP:  54; 6HR MAX TEMP:  57; 6HR PCP: TRACE;

PLYMOUTH       FOG       66  66 100 CALM      29.87S VSB 1/4
6HR MIN TEMP:  67; 6HR MAX TEMP:  74;

WHITEFIELD     CLEAR     65  63  93 CALM      29.86F
6HR MIN TEMP:  65; 6HR MAX TEMP:  77; 6HR PCP: TRACE;


$$

_____REGIONAL QUEBEC LOCATIONS_____


CITY           SKY/WX    TMP DP  RH WIND       PRES   REMARKS
MONTREAL       LGT RAIN  68  66  94 NW14      29.78R
QUEBEC CITY    CLOUDY    72  70  94 S14       29.68F FOG
SHERBROOKE     LGT RAIN  72  66  83 SW6       29.78F

_____REGIONAL ONTARIO LOCATIONS_____


CITY           SKY/WX    TMP DP  RH WIND       PRES   REMARKS
OTTAWA         MOCLDY    59  55  88 NW15G22   29.90R

______KEY______
VSB  - VISIBILITY IN MILES
WCI  - WIND CHILL INDEX
HX   - HEAT INDEX
$$
NNNN


USA.gov is the U.S. government's official web portal to all federal, state and local government web resources and services.